Tracking 19817 objects as of 19-Aug-2019
HD Live streaming from Space Station
objects crossing your sky now

CZ-4C DEB

Track CZ-4C DEB now!
10-day predictions


NORAD ID: 39231
Int'l Code: 2013-037H
Perigee: 676.8 km
Apogee: 1,044.5 km
Inclination: 98.1 °
Period: 102.0 minutes
Semi major axis: 7231 km
RCS: Unknown
Launch date: July 19, 2013
Source: People's Republic of China (PRC)
Launch site: Taiyaun Space Center, China (TSC)

Note: This is SATELLITE DEBRIS
aabbcc
Your satellite tracking list
Your tracking list is empty




NASA's NSSDC Master Catalog

Two Line Element Set (TLE):
1 39231U 13037H   19230.33660757 +.00000186 +00000-0 +92869-4 0  9997
2 39231 098.0806 070.2990 0254209 268.6192 088.5851 14.11706712307953
Source of the keplerian elements: AFSPC